EW9688 Weather Reports


Display with metric or nautical units.
time (UTC)temp
F
wind
direction
speed
MPH
gust
MPH
rain 1hr
in
rain 24hr
in
rain mn
in
humidity
%
barometer
mb
20260901230828 80 355 0.0 0.0 0.00 0.09 0.03 33 1021.1
20260901225829 79 202 3.0 4.0 0.00 0.09 0.03 33 1021.1
20260901224829 79 178 2.0 2.0 0.00 0.09 0.03 33 1021.1
20260901223829 79 104 4.0 6.0 0.00 0.09 0.03 34 1021.1
20260901222820 80 117 5.0 6.0 0.00 0.09 0.03 34 1021.1
20260901221834 79 169 2.0 3.0 0.00 0.09 0.03 35 1021.3
20260901220829 80 177 3.0 4.0 0.00 0.09 0.03 35 1021.2
20260901215831 80 133 3.0 3.0 0.00 0.09 0.03 34 1021.3
20260901214830 81 150 3.0 4.0 0.00 0.09 0.03 36 1021.4
20260901213850 80 28 1.0 2.0 0.00 0.09 0.03 35 1021.6
20260901212821 78 16 4.0 7.0 0.00 0.09 0.03 39 1021.8
20260901211830 78 54 2.0 4.0 0.00 0.09 0.03 38 1021.8
20260901210821 79 27 5.0 7.0 0.00 0.09 0.03 37 1021.7
20260901205822 78 73 2.0 4.0 0.00 0.09 0.03 37 1021.9
20260901204830 78 147 2.0 2.0 0.00 0.09 0.03 36 1022.0
20260901203902 79 175 2.0 3.0 0.00 0.09 0.03 37 1021.9
20260901202828 80 130 3.0 5.0 0.00 0.09 0.03 36 1021.9
20260901201822 80 63 3.0 5.0 0.00 0.09 0.03 35 1021.9
20260901200836 80 126 4.0 5.0 0.00 0.08 0.03 36 1021.9
20260901195836 80 14 3.0 4.0 0.00 0.08 0.03 36 1021.9
20260901194822 79 117 5.0 6.0 0.00 0.08 0.03 37 1022.0
20260901193822 79 145 4.0 5.0 0.00 0.08 0.03 37 1022.1
20260901192823 79 154 4.0 5.0 0.00 0.08 0.03 38 1022.1
20260901191823 79 149 4.0 5.0 0.00 0.08 0.03 38 1022.2
20260901190817 78 110 3.0 6.0 0.00 0.08 0.03 39 1022.4
20260901185818 78 116 6.0 8.0 0.00 0.08 0.03 39 1022.5
20260901184818 78 111 5.0 7.0 0.00 0.08 0.03 39 1022.6
20260901183817 76 132 3.0 5.0 0.00 0.08 0.03 42 1022.8
20260901182838 76 93 5.0 8.0 0.00 0.08 0.03 44 1022.8
20260901181818 76 139 4.0 7.0 0.00 0.08 0.03 44 1022.8
20260901180819 76 132 2.0 6.0 0.00 0.08 0.03 43 1023.0
20260901175818 76 24 5.0 6.0 0.00 0.08 0.03 42 1023.1
20260901174818 76 30 6.0 9.0 0.00 0.08 0.03 45 1023.2
20260901173859 75 104 5.0 9.0 0.00 0.08 0.03 45 1023.2
20260901172818 75 106 6.0 10.0 0.00 0.08 0.03 44 1023.2
20260901171824 75 133 4.0 5.0 0.00 0.08 0.03 44 1023.2
20260901170819 74 131 4.0 7.0 0.00 0.08 0.03 46 1023.3
20260901165819 74 153 4.0 6.0 0.00 0.08 0.03 45 1023.4
20260901164820 73 118 4.0 6.0 0.00 0.08 0.03 48 1023.4
20260901163819 73 108 3.0 4.0 0.00 0.08 0.03 49 1023.5
20260901162819 72 126 3.0 4.0 0.00 0.08 0.03 53 1023.4
20260901161820 73 171 3.0 4.0 0.00 0.08 0.03 57 1023.4
20260901160820 74 29 4.0 5.0 0.00 0.08 0.03 48 1023.4
20260901155826 72 22 2.0 4.0 0.00 0.08 0.03 45 1023.4
20260901154846 71 7 3.0 5.0 0.00 0.08 0.03 46 1023.5
20260901153927 69 339 2.0 4.0 0.00 0.08 0.03 51 1023.6
20260901152826 67 260 2.0 3.0 0.00 0.08 0.03 56 1023.7
20260901151826 66 314 1.0 2.0 0.00 0.08 0.03 66 1023.7
20260901150827 67 246 2.0 4.0 0.00 0.08 0.03 55 1023.5
20260901145821 66 327 2.0 2.0 0.00 0.08 0.03 64 1023.5
20260901144821 66 170 1.0 1.0 0.00 0.08 0.03 62 1023.5
20260901143842 65 209 5.0 6.0 0.00 0.08 0.03 58 1023.5
20260901142822 63 190 2.0 2.0 0.00 0.08 0.03 70 1023.6
20260901141822 63 162 1.0 2.0 0.00 0.08 0.03 71 1023.7
20260901140827 63 138 2.0 3.0 0.00 0.08 0.03 71 1023.7
20260901135849 63 276 1.0 2.0 0.00 0.08 0.03 67 1023.6
20260901134828 63 239 1.0 1.0 0.00 0.08 0.03 67 1023.5
20260901133828 62 218 2.0 3.0 0.00 0.08 0.03 68 1023.3
20260901132828 60 227 1.0 2.0 0.00 0.08 0.03 73 1023.3
20260901131848 60 295 1.0 1.0 0.00 0.08 0.03 77 1023.1
20260901130829 60 220 2.0 2.0 0.00 0.08 0.03 76 1023.0
20260901125829 60 238 1.0 1.0 0.00 0.08 0.03 76 1022.8
20260901124849 60 237 0.0 0.0 0.00 0.08 0.03 76 1022.8
20260901123829 60 344 1.0 2.0 0.00 0.08 0.03 77 1022.7
20260901122829 60 310 1.0 1.0 0.00 0.08 0.03 78 1022.6
20260901121829 59 313 2.0 2.0 0.00 0.08 0.03 77 1022.5
20260901120850 59 284 1.0 1.0 0.00 0.08 0.03 79 1022.5
20260901115849 59 288 2.0 3.0 0.00 0.08 0.03 79 1022.6
20260901114830 60 278 1.0 1.0 0.00 0.08 0.03 78 1022.5
20260901113850 59 303 1.0 2.0 0.00 0.08 0.03 80 1022.5
20260901112830 59 261 2.0 2.0 0.00 0.08 0.03 80 1022.5
20260901111830 59 297 2.0 2.0 0.00 0.08 0.03 80 1022.6
20260901110830 59 313 2.0 2.0 0.00 0.08 0.03 81 1022.5
20260901105831 59 312 1.0 2.0 0.00 0.08 0.03 81 1022.7
20260901104830 59 279 2.0 2.0 0.00 0.08 0.03 80 1022.8
20260901103832 59 281 2.0 2.0 0.00 0.08 0.03 82 1022.8
20260901102831 59 301 2.0 2.0 0.00 0.08 0.03 82 1022.9
20260901101911 59 196 0.0 1.0 0.00 0.08 0.03 84 1022.9
20260901100831 59 267 1.0 1.0 0.00 0.08 0.03 83 1023.2
20260901095831 59 311 2.0 2.0 0.00 0.08 0.03 83 1023.2
20260901094831 60 275 1.0 1.0 0.00 0.08 0.03 82 1023.2
20260901093832 60 300 2.0 2.0 0.00 0.08 0.03 82 1023.3
20260901092832 60 261 1.0 1.0 0.00 0.08 0.03 83 1023.4
20260901091833 60 302 2.0 2.0 0.00 0.08 0.03 83 1023.4
20260901090832 60 286 2.0 2.0 0.00 0.08 0.03 83 1023.5
20260901085833 60 271 2.0 2.0 0.00 0.08 0.03 82 1023.6
20260901084834 60 259 1.0 1.0 0.00 0.08 0.03 81 1023.6
20260901083855 60 253 1.0 1.0 0.00 0.08 0.03 83 1023.7
20260901082833 60 296 1.0 1.0 0.00 0.08 0.03 82 1023.7
20260901081833 60 283 1.0 1.0 0.00 0.08 0.03 82 1023.8
20260901080833 60 252 1.0 1.0 0.01 0.08 0.03 83 1023.9
20260901075853 60 265 1.0 1.0 0.02 0.08 0.03 83 1024.0
20260901074834 60 282 1.0 1.0 0.02 0.08 0.03 84 1024.1
20260901073834 60 290 1.0 2.0 0.02 0.08 0.03 84 1024.2
20260901072834 60 315 2.0 2.0 0.02 0.08 0.03 84 1024.2
20260901071834 60 269 2.0 2.0 0.02 0.08 0.03 83 1024.3
20260901070834 61 225 1.0 2.0 0.02 0.08 0.02 82 1024.3
20260901065834 62 212 3.0 4.0 0.01 0.06 0.01 81 1024.5
20260901064835 62 213 2.0 3.0 0.00 0.06 0.00 78 1024.5
20260901063836 62 227 1.0 2.0 0.00 0.06 0.00 78 1024.2
20260901062835 62 219 2.0 2.0 0.00 0.06 0.00 78 1024.2
20260901061855 62 245 1.0 1.0 0.00 0.06 0.00 79 1024.2
20260901060830 62 332 0.0 1.0 0.00 0.06 0.00 77 1024.2
20260901055835 62 227 1.0 2.0 0.00 0.06 0.06 79 1024.2
20260901054832 62 240 1.0 1.0 0.00 0.06 0.06 79 1024.1
20260901053831 62 247 1.0 1.0 0.00 0.06 0.06 78 1023.9
20260901052836 62 208 2.0 2.0 0.00 0.06 0.06 77 1023.9
20260901051834 62 298 2.0 3.0 0.00 0.06 0.06 78 1024.2
20260901050831 62 270 1.0 1.0 0.00 0.06 0.06 78 1024.1
20260901045818 62 274 1.0 1.0 0.00 0.06 0.06 79 1024.3
20260901044816 62 279 2.0 2.0 0.00 0.06 0.06 79 1024.4
20260901043822 62 302 1.0 1.0 0.00 0.06 0.06 79 1024.4
20260901042819 62 250 1.0 2.0 0.00 0.06 0.06 79 1024.4
20260901041832 62 255 1.0 1.0 0.00 0.06 0.06 78 1024.4
20260901040837 62 266 1.0 2.0 0.00 0.06 0.06 78 1024.3
20260901035819 63 274 2.0 3.0 0.00 0.06 0.06 78 1024.2
20260901034817 62 22 3.0 3.0 0.02 0.06 0.06 77 1024.4
20260901033825 62 350 3.0 4.0 0.03 0.06 0.06 80 1023.9
20260901032820 61 316 2.0 3.0 0.04 0.06 0.06 83 1024.6
20260901031818 62 259 1.0 1.0 0.04 0.06 0.06 83 1024.5
20260901030823 62 30 1.0 2.0 0.05 0.06 0.06 83 1025.0
20260901025821 62 213 1.0 2.0 0.05 0.06 0.06 81 1025.4
20260901024819 63 168 1.0 1.0 0.04 0.04 0.04 80 1025.4
20260901023827 64 181 2.0 4.0 0.02 0.03 0.03 76 1025.4
20260901022842 64 177 1.0 1.0 0.01 0.02 0.02 76 1024.9
20260901021816 66 190 3.0 5.0 0.01 0.02 0.02 74 1024.6
20260901020842 69 220 4.0 5.0 0.00 0.01 0.01 62 1023.9
20260901015821 70 206 3.0 4.0 0.00 0.00 0.00 53 1023.4
20260901014819 69 233 2.0 3.0 0.00 0.00 0.00 54 1023.2
20260901013824 69 299 2.0 3.0 0.00 0.00 0.00 56 1023.1
20260901012819 69 264 2.0 3.0 0.00 0.00 0.00 56 1023.0
20260901011823 69 278 2.0 3.0 0.00 0.00 0.00 58 1023.2
20260901010826 68 325 2.0 2.0 0.00 0.00 0.00 59 1023.4
20260901005822 68 320 3.0 4.0 0.00 0.00 0.00 62 1023.5
20260901004817 68 288 3.0 5.0 0.00 0.00 0.00 68 1023.5
20260901003822 72 296 6.0 8.0 0.00 0.00 0.00 57 1023.3
20260901002819 75 287 5.0 8.0 0.00 0.00 0.00 45 1023.0
20260901001818 77 25 4.0 5.0 0.00 0.00 0.00 37 1022.8
20260901000826 78 20 3.0 3.0 0.00 0.00 0.00 37 1022.6
20260831235819 78 21 3.0 4.0 0.00 0.00 0.00 35 1022.5
20260831234818 78 26 4.0 5.0 0.00 0.00 0.00 35 1022.4
20260831233823 79 24 5.0 8.0 0.00 0.00 0.00 35 1022.5
20260831232832 79 29 3.0 4.0 0.00 0.00 0.00 36 1022.4
20260831231839 80 119 2.0 5.0 0.00 0.00 0.00 35 1022.4